Date,TemperatureHighF,TemperatureAvgF,TemperatureLowF,DewpointHighF,DewpointAvgF,DewpointLowF,HumidityHigh,HumidityAvg,HumidityLow,PressureMaxIn,PressureMinIn,WindSpeedMaxMPH,WindSpeedAvgMPH,GustSpeedMaxMPH,PrecipitationSumIn
2013-3-4,27.0,27.0,27.0,6.0,6.0,6.0,42,42,42,0.00,40.00,10,10,18,0.00
2013-3-5,25.0,22.3,19.0,23.0,20.3,17.0,94,93,91,0.00,40.00,0,0,0,0.00
2013-3-6,23.0,12.2,4.0,11.0,7.3,3.0,96,82,59,0.00,40.00,0,0,0,0.00
2013-3-7,33.0,11.0,-5.0,9.0,1.6,-7.0,92,72,35,0.00,40.00,3,1,5,0.00
2013-3-8,26.0,26.0,26.0,22.0,22.0,22.0,87,87,87,0.00,40.00,0,0,0,0.00
2013-3-9,35.0,35.0,35.0,35.0,35.0,35.0,98,98,98,0.00,40.00,0,0,0,0.00
2013-3-11,31.0,27.3,25.0,22.0,19.4,16.0,83,73,56,0.00,40.00,0,0,0,0.00
2013-3-12,30.0,22.9,16.0,18.0,10.0,2.0,95,62,30,0.00,40.00,0,0,0,0.00
2013-3-13,31.0,22.2,11.0,9.0,5.0,2.0,92,51,31,0.00,40.00,0,0,0,0.00
2013-3-14,40.0,30.5,22.0,25.0,20.3,11.0,92,67,48,0.00,40.00,6,1,9,0.00
2013-3-15,32.0,28.9,21.0,30.0,22.1,13.0,98,77,47,0.00,40.00,0,0,0,0.00
2013-3-16,23.0,19.3,15.0,15.0,5.2,-1.0,91,56,36,0.00,40.00,10,2,19,0.00
2013-3-17,25.0,13.0,-7.0,5.0,-2.8,-11.0,81,52,31,0.00,40.00,6,2,14,0.00
2013-3-18,27.0,21.5,17.0,26.0,13.0,8.0,96,71,52,0.00,40.00,0,0,0,0.00
2013-3-19,24.0,16.8,10.0,2.0,-3.0,-12.0,71,43,29,0.00,40.00,17,7,33,0.00
2013-3-20,22.0,12.7,4.0,1.0,-4.8,-13.0,57,46,36,0.00,40.00,9,4,19,0.00
2013-3-21,27.0,12.7,-5.0,7.0,0.6,-8.0,87,62,37,0.00,40.00,7,2,14,0.00
2013-3-22,37.0,17.1,-1.0,13.0,5.4,-3.0,92,67,28,0.00,40.00,7,1,13,0.00
2013-3-23,38.0,27.5,16.0,18.0,15.0,13.0,90,63,37,0.00,40.00,4,0,9,0.00
2013-3-24,33.0,29.0,25.0,20.0,18.3,17.0,74,65,53,0.00,40.00,0,0,0,0.00
2013-3-25,39.0,28.0,19.0,19.0,15.2,13.0,79,61,35,0.00,40.00,6,0,16,0.00
2013-3-26,39.0,35.0,30.0,20.0,17.0,15.0,65,48,36,0.00,40.00,0,0,0,0.00
2013-3-27,35.0,31.7,29.0,25.0,24.0,23.0,83,74,63,0.00,40.00,0,0,0,0.00
2013-3-28,47.0,30.6,15.0,20.0,13.8,10.0,98,59,23,0.00,40.00,1,0,2,0.00
2013-3-29,51.0,37.2,23.0,31.0,23.6,18.0,94,62,34,0.00,40.00,6,1,14,0.00
2013-3-30,51.0,42.7,38.0,41.0,34.5,-99.9,98,80,38,0.00,40.00,10,4,14,0.00
2013-3-31,38.0,33.4,26.0,32.0,18.7,2.0,96,61,24,0.00,40.00,13,3,27,0.00